Regional Weather Roundup
Issued by NWS

Home | Current Version | Previous Version | Text Only | Print | Product List | Glossary Off
Versions: 1 2 3 4 5 6 7 8 9 10 11 12 13 14 15 16 17 18 19 20 21 22 23 24 25 26 27 28 29 30 31 32 33 34 35 36 37 38 39 40 41 42 43 44 45 46 47 48 49 50

000
ASUS43 KFSD 170802
RWRSD

WEATHER ROUNDUP FOR SOUTH DAKOTA
NATIONAL WEATHER SERVICE SIOUX FALLS SD
300 AM CDT THU APR 17 2014

NOTE: "FAIR" INDICATES FEW OR NO CLOUDS BELOW 12,000 FEET WITH NO
SIGNIFICANT WEATHER AND/OR OBSTRUCTIONS TO VISIBILITY.


SDZ001>005-009-010-012>017-170900-
NORTHWEST AND NORTH CENTRAL SOUTH DAKOTA

CITY           SKY/WX    TMP DP  RH WIND       PRES   REMARKS
FAITH            N/A     29  22  75 SE7       30.20F WCI  22
MOBRIDGE       MOCLDY    26  17  68 E13       30.23S WCI  15
$$

SDZ012>016-024>037-041>051-057-063-072>074-170900-
SOUTHWEST AND SOUTH CENTRAL SOUTH DAKOTA

CITY           SKY/WX    TMP DP  RH WIND       PRES   REMARKS
RAPID CTY ARPT CLOUDY    30  25  81 S8        30.17S WCI  22
PIERRE         PTCLDY    26  20  77 CALM      30.23F
CUSTER         CLOUDY    25  23  92 CALM      30.08S FOG
ELLSWORTH AFB  CLOUDY    31  26  83 S13       30.16R WCI  21
PHILIP         MOCLDY    29  22  75 SE5       30.22F WCI  24
PINE RIDGE     CLOUDY    30  26  85 S7        30.19S WCI  23
WINNER         FAIR      24  20  84 W5        30.23S WCI  18
$$

SDZ004>011-016>023-039-040-170900-
NORTHEAST SOUTH DAKOTA

CITY           SKY/WX    TMP DP  RH WIND       PRES   REMARKS
ABERDEEN       CLEAR     18  15  88 N7        30.26S WCI   9
WATERTOWN      CLEAR     19  16  88 NW10      30.19R WCI   7
SISSETON         N/A     20  17  88 N10       30.23S WCI   9
$$

SDZ017-020-022-023-036>040-048>070-170900-
SOUTHEAST SOUTH DAKOTA

CITY           SKY/WX    TMP DP  RH WIND       PRES   REMARKS
SIOUX FALLS    CLOUDY    27  23  85 N12       30.18S WCI  17
HURON          CLEAR     19  15  84 NW9       30.24F WCI   8
CHAMBERLAIN      N/A     25  21  85 N5        30.24F WCI  19
MITCHELL       CLEAR     23  21  92 NW9       30.24S WCI  13
YANKTON        CLOUDY    30  23  74 N9        30.22F WCI  22
$$

ABBREVIATIONS USED IN REMARKS
   TC - TEMPERATURE IN CELSIUS
  WCI - WIND CHILL INDEX
   HX - HEAT INDEX
  VSB - VISIBILITY




USA.gov is the U.S. government's official web portal to all federal, state and local government web resources and services.